AIC5258 VABB-OMDB

Flight info

Callsign AIC5258
Flight time N/A
Altitude 37000
Route RAXET2A SAKUN V1 BIMOT DCT DOGET N571 VUSET A454 PASOV B540 MIVEK P574 IMPED
Aircraft A359/H-SDE2E3GHIJ3J4J5LM1ORWXY/LB1D1

Departure

Time 2026-04-29 15:19
Airport Chhatrapati Shivaji Maharaj International Airport (VABB)

Arrival

Time N/A
Airport Dubai International Airport (OMDB)
Time Latitude Longitude Altitude Speed Heading
2026-04-29 14:32 19.09554 72.87170 39 ft 0 kts 138°
2026-04-29 14:37 19.09554 72.87169 41 ft 0 kts 138°
2026-04-29 14:38 19.09554 72.87170 41 ft 0 kts 138°
2026-04-29 15:01 19.09566 72.87158 39 ft 3 kts 138°
2026-04-29 15:02 19.09580 72.87144 39 ft 3 kts 138°
2026-04-29 15:02 19.09593 72.87132 38 ft 3 kts 138°
2026-04-29 15:02 19.09607 72.87118 38 ft 3 kts 138°
2026-04-29 15:02 19.09622 72.87105 37 ft 3 kts 150°
2026-04-29 15:03 19.09639 72.87097 38 ft 0 kts 171°
2026-04-29 15:09 19.09637 72.87098 38 ft 2 kts 171°
2026-04-29 15:10 19.09593 72.87072 41 ft 13 kts 220°
2026-04-29 15:10 19.09522 72.86997 40 ft 15 kts 227°
2026-04-29 15:10 19.09446 72.86906 42 ft 18 kts 228°
2026-04-29 15:10 19.09343 72.86905 41 ft 17 kts 142°
2026-04-29 15:11 19.09253 72.86999 40 ft 19 kts 126°
2026-04-29 15:11 19.09235 72.87140 40 ft 20 kts 90°
2026-04-29 15:11 19.09203 72.87264 38 ft 11 kts 149°
2026-04-29 15:11 19.09152 72.87264 40 ft 8 kts 181°
2026-04-29 15:12 19.09087 72.87268 40 ft 10 kts 163°
2026-04-29 15:12 19.09059 72.87303 40 ft 10 kts 110°
2026-04-29 15:12 19.09053 72.87418 40 ft 13 kts 90°
2026-04-29 15:12 19.09053 72.87527 39 ft 16 kts 90°
2026-04-29 15:13 19.09055 72.87651 39 ft 18 kts 89°
2026-04-29 15:13 19.09057 72.87794 39 ft 20 kts 88°
2026-04-29 15:13 19.09060 72.87932 39 ft 18 kts 89°
2026-04-29 15:13 19.09061 72.87965 39 ft 0 kts 89°
2026-04-29 15:14 19.09060 72.88004 39 ft 12 kts 96°
2026-04-29 15:14 19.09006 72.88045 39 ft 0 kts 177°
2026-04-29 15:16 19.08997 72.88046 38 ft 6 kts 177°
2026-04-29 15:17 19.08924 72.88015 37 ft 16 kts 227°
2026-04-29 15:17 19.08892 72.87928 38 ft 0 kts 264°
2026-04-29 15:18 19.08892 72.87927 38 ft 0 kts 263°
2026-04-29 15:18 19.08885 72.87719 39 ft 65 kts 269°
2026-04-29 15:19 19.08878 72.86999 41 ft 129 kts 269°
2026-04-29 15:19 19.08871 72.85866 159 ft 169 kts 269°
2026-04-29 15:19 19.08864 72.84717 1135 ft 144 kts 272°
2026-04-29 15:19 19.08926 72.83606 1558 ft 173 kts 279°
2026-04-29 15:20 19.09183 72.82117 1776 ft 238 kts 282°
2026-04-29 15:20 19.09621 72.80208 2144 ft 295 kts 285°
2026-04-29 15:20 19.10252 72.77971 2577 ft 341 kts 288°
2026-04-29 15:20 19.11072 72.75535 3015 ft 349 kts 291°
2026-04-29 15:21 19.12001 72.73147 3435 ft 353 kts 293°
2026-04-29 15:21 19.13042 72.70786 3850 ft 355 kts 296°
2026-04-29 15:21 19.14186 72.68459 4285 ft 358 kts 298°
2026-04-29 15:21 19.15435 72.66154 4704 ft 361 kts 301°
2026-04-29 15:22 19.16606 72.63791 5363 ft 362 kts 290°
2026-04-29 15:22 19.17254 72.61242 6520 ft 355 kts 281°
2026-04-29 15:22 19.17702 72.58701 7785 ft 348 kts 280°
2026-04-29 15:22 19.18163 72.56214 9053 ft 342 kts 282°
2026-04-29 15:23 19.18709 72.53793 10308 ft 335 kts 284°
2026-04-29 15:23 19.19335 72.51445 11570 ft 328 kts 287°
2026-04-29 15:23 19.20010 72.49176 12785 ft 320 kts 288°
2026-04-29 15:23 19.20719 72.46929 13643 ft 327 kts 289°
2026-04-29 15:24 19.21469 72.44616 14280 ft 337 kts 289°
2026-04-29 15:24 19.22240 72.42253 15052 ft 342 kts 289°
2026-04-29 15:24 19.23018 72.39861 15805 ft 346 kts 289°
2026-04-29 15:24 19.23802 72.37435 16558 ft 351 kts 289°
2026-04-29 15:25 19.24591 72.34977 17314 ft 355 kts 288°
2026-04-29 15:25 19.25388 72.32483 18073 ft 359 kts 288°
2026-04-29 15:25 19.26190 72.29967 18832 ft 363 kts 288°
2026-04-29 15:25 19.27003 72.27415 19560 ft 368 kts 288°
2026-04-29 15:26 19.27824 72.24833 20270 ft 372 kts 288°
2026-04-29 15:26 19.28653 72.22228 20960 ft 376 kts 288°
2026-04-29 15:26 19.29492 72.19589 21636 ft 380 kts 288°
2026-04-29 15:26 19.30337 72.16930 22275 ft 384 kts 288°
2026-04-29 15:27 19.31195 72.14230 22905 ft 388 kts 288°
2026-04-29 15:27 19.32057 72.11518 23523 ft 392 kts 288°
2026-04-29 15:27 19.32930 72.08767 24134 ft 395 kts 288°
2026-04-29 15:27 19.33798 72.06032 24715 ft 399 kts 288°
2026-04-29 15:28 19.34685 72.03234 25294 ft 403 kts 288°
2026-04-29 15:28 19.35289 72.01328 25669 ft 405 kts 288°
2026-04-29 15:28 19.36494 71.97524 26401 ft 410 kts 288°
2026-04-29 15:28 19.37402 71.94654 26936 ft 413 kts 288°
2026-04-29 15:29 19.38306 71.91796 27445 ft 417 kts 288°
2026-04-29 15:29 19.40163 71.85919 28447 ft 424 kts 288°
2026-04-29 15:30 19.42043 71.79964 29441 ft 428 kts 288°
2026-04-29 15:30 19.42986 71.76973 30066 ft 427 kts 288°
2026-04-29 15:30 19.43921 71.74004 30650 ft 425 kts 288°
2026-04-29 15:30 19.44860 71.71024 31199 ft 425 kts 288°
2026-04-29 15:31 19.45489 71.69024 31557 ft 424 kts 288°
2026-04-29 15:31 19.46723 71.65101 32237 ft 423 kts 288°
2026-04-29 15:31 19.47349 71.63110 32567 ft 422 kts 288°
2026-04-29 15:31 19.48265 71.60193 33033 ft 422 kts 288°
2026-04-29 15:32 19.49202 71.57210 33498 ft 421 kts 288°
2026-04-29 15:32 19.50124 71.54270 33934 ft 420 kts 288°
2026-04-29 15:32 19.51033 71.51371 34349 ft 419 kts 288°
2026-04-29 15:32 19.51951 71.48442 34753 ft 419 kts 288°
2026-04-29 15:33 19.52867 71.45517 35134 ft 418 kts 288°
2026-04-29 15:33 19.53783 71.42591 35504 ft 417 kts 288°
2026-04-29 15:33 19.54694 71.39677 35845 ft 417 kts 288°
2026-04-29 15:33 19.55611 71.36742 35997 ft 423 kts 288°
2026-04-29 15:34 19.56546 71.33750 36005 ft 431 kts 288°
2026-04-29 15:34 19.58469 71.27588 36006 ft 449 kts 288°
2026-04-29 15:35 19.60466 71.21183 36001 ft 466 kts 288°
2026-04-29 15:35 19.62535 71.14536 36006 ft 482 kts 288°
2026-04-29 15:36 19.64663 71.07690 36004 ft 495 kts 288°
2026-04-29 15:36 19.66837 71.00684 36002 ft 503 kts 288°
2026-04-29 15:37 19.69028 70.93613 35999 ft 505 kts 288°
2026-04-29 15:37 19.71222 70.86521 36001 ft 506 kts 288°
2026-04-29 15:38 19.73411 70.79434 36003 ft 506 kts 288°
2026-04-29 15:38 19.75600 70.72335 36001 ft 506 kts 288°
2026-04-29 15:39 19.77788 70.65230 35997 ft 506 kts 288°
2026-04-29 15:39 19.79974 70.58121 35999 ft 506 kts 288°
2026-04-29 15:40 19.82155 70.51016 36002 ft 506 kts 288°
2026-04-29 15:40 19.84330 70.43919 35998 ft 506 kts 288°
2026-04-29 15:41 19.86508 70.36801 36000 ft 506 kts 288°
2026-04-29 15:41 19.88658 70.29737 35998 ft 506 kts 288°
2026-04-29 15:42 19.90794 70.22619 36000 ft 506 kts 287°
2026-04-29 15:42 19.92929 70.15483 35999 ft 506 kts 287°
2026-04-29 15:43 19.95063 70.08359 36000 ft 506 kts 287°
2026-04-29 15:43 19.97197 70.01230 35999 ft 506 kts 287°
2026-04-29 15:44 19.99328 69.94102 36003 ft 506 kts 287°
2026-04-29 15:44 20.01457 69.86971 35999 ft 506 kts 287°
2026-04-29 15:45 20.03582 69.79839 35999 ft 506 kts 287°
2026-04-29 15:45 20.05705 69.72701 36001 ft 506 kts 287°
2026-04-29 15:46 20.07824 69.65565 36001 ft 506 kts 287°
2026-04-29 15:46 20.09940 69.58428 36001 ft 506 kts 287°
2026-04-29 15:47 20.12055 69.51284 36003 ft 506 kts 287°
2026-04-29 15:47 20.14169 69.44132 36000 ft 506 kts 287°
2026-04-29 15:48 20.16276 69.36991 36003 ft 506 kts 287°
2026-04-29 15:48 20.18383 69.29838 35995 ft 506 kts 287°
2026-04-29 15:49 20.20486 69.22687 35999 ft 506 kts 287°
2026-04-29 15:49 20.22584 69.15541 36001 ft 506 kts 287°
2026-04-29 15:50 20.24680 69.08389 36001 ft 506 kts 287°
2026-04-29 15:50 20.26774 69.01234 36003 ft 506 kts 287°
2026-04-29 15:51 20.28866 68.94074 35999 ft 506 kts 287°
2026-04-29 15:51 20.30943 68.86951 35999 ft 506 kts 287°
2026-04-29 15:52 20.33043 68.79740 36000 ft 506 kts 287°
2026-04-29 15:52 20.35113 68.72618 36003 ft 506 kts 287°
2026-04-29 15:53 20.37195 68.65444 36002 ft 506 kts 287°
2026-04-29 15:53 20.39271 68.58279 36003 ft 506 kts 287°
2026-04-29 15:54 20.41344 68.51112 36000 ft 506 kts 287°
2026-04-29 15:54 20.43414 68.43943 36001 ft 506 kts 287°
2026-04-29 15:55 20.45486 68.36755 36000 ft 506 kts 287°
2026-04-29 15:55 20.47549 68.29587 36001 ft 506 kts 287°
2026-04-29 15:56 20.49614 68.22400 35999 ft 506 kts 287°
2026-04-29 15:56 20.51660 68.15263 36002 ft 506 kts 287°
2026-04-29 15:57 20.53733 68.08023 35996 ft 506 kts 287°
2026-04-29 15:57 20.55770 68.00896 36001 ft 506 kts 287°
2026-04-29 15:58 20.57822 67.93706 36000 ft 506 kts 287°
2026-04-29 15:58 20.59869 67.86518 36001 ft 506 kts 287°
2026-04-29 15:59 20.61914 67.79327 36002 ft 506 kts 287°
2026-04-29 15:59 20.63957 67.72131 36002 ft 506 kts 287°
2026-04-29 16:00 20.65997 67.64931 36002 ft 506 kts 287°
2026-04-29 16:00 20.68021 67.57777 36000 ft 506 kts 287°
2026-04-29 16:01 20.70066 67.50535 36001 ft 506 kts 287°
2026-04-29 16:01 20.72097 67.43332 36001 ft 506 kts 287°
2026-04-29 16:02 20.74120 67.36142 35998 ft 506 kts 287°
2026-04-29 16:02 20.76148 67.28922 36001 ft 506 kts 287°
2026-04-29 16:03 20.78154 67.21768 36001 ft 506 kts 287°
2026-04-29 16:03 20.80171 67.14563 36002 ft 506 kts 287°
2026-04-29 16:04 20.82187 67.07349 36001 ft 506 kts 287°
2026-04-29 16:04 20.84196 67.00147 35999 ft 506 kts 286°
2026-04-29 16:05 20.86206 66.92928 35998 ft 506 kts 286°
2026-04-29 16:05 20.88212 66.85714 36000 ft 506 kts 286°
2026-04-29 16:06 20.90216 66.78491 35998 ft 506 kts 286°
2026-04-29 16:06 20.92211 66.71288 36002 ft 506 kts 286°
2026-04-29 16:07 20.94208 66.64065 36002 ft 506 kts 286°
2026-04-29 16:07 20.96205 66.56830 35995 ft 506 kts 286°
2026-04-29 16:08 20.98197 66.49597 36000 ft 506 kts 286°
2026-04-29 16:08 21.00173 66.42414 36001 ft 506 kts 286°
2026-04-29 16:09 21.02154 66.35195 36001 ft 506 kts 286°
2026-04-29 16:09 21.04137 66.27960 35999 ft 506 kts 286°
2026-04-29 16:10 21.06115 66.20729 36002 ft 506 kts 286°
2026-04-29 16:10 21.08092 66.13487 36001 ft 506 kts 286°
2026-04-29 16:11 21.10067 66.06239 35996 ft 506 kts 286°
2026-04-29 16:11 21.12271 65.99129 36004 ft 506 kts 295°
2026-04-29 16:12 21.15340 65.92347 36002 ft 506 kts 296°
2026-04-29 16:12 21.18526 65.85611 36000 ft 506 kts 297°
2026-04-29 16:13 21.21707 65.78900 35998 ft 506 kts 297°
2026-04-29 16:13 21.24890 65.72144 35999 ft 506 kts 296°
2026-04-29 16:14 21.28055 65.65400 35998 ft 506 kts 296°
2026-04-29 16:14 21.31221 65.58643 35998 ft 506 kts 296°
2026-04-29 16:15 21.34377 65.51898 36001 ft 506 kts 296°
2026-04-29 16:15 21.37528 65.45159 35996 ft 506 kts 296°
2026-04-29 16:16 21.40683 65.38401 35998 ft 506 kts 296°
2026-04-29 16:16 21.43835 65.31641 36002 ft 506 kts 296°
2026-04-29 16:17 21.46987 65.24874 35998 ft 506 kts 296°
2026-04-29 16:17 21.50137 65.18101 36001 ft 506 kts 296°
2026-04-29 16:18 21.52751 65.12474 36000 ft 506 kts 296°
2026-04-29 16:18 21.55893 65.05701 35999 ft 506 kts 296°
2026-04-29 16:19 21.59033 64.98926 36001 ft 506 kts 296°
2026-04-29 16:19 21.62168 64.92152 36000 ft 506 kts 296°
2026-04-29 16:20 21.65287 64.85403 36000 ft 506 kts 296°
2026-04-29 16:20 21.68437 64.78579 36001 ft 506 kts 296°
2026-04-29 16:21 21.71543 64.71840 36000 ft 506 kts 296°
2026-04-29 16:21 21.74670 64.65048 36001 ft 506 kts 296°
2026-04-29 16:22 21.77798 64.58243 36002 ft 506 kts 296°
2026-04-29 16:22 21.80921 64.51442 35998 ft 506 kts 296°
2026-04-29 16:23 21.84016 64.44693 35995 ft 506 kts 296°
2026-04-29 16:23 21.87136 64.37879 36002 ft 506 kts 296°
2026-04-29 16:24 21.90251 64.31068 35996 ft 506 kts 296°
2026-04-29 16:24 21.93357 64.24265 36001 ft 506 kts 296°
2026-04-29 16:25 21.96449 64.17486 36002 ft 506 kts 296°
2026-04-29 16:25 21.99549 64.10681 36002 ft 506 kts 296°
2026-04-29 16:26 22.02653 64.03856 36002 ft 506 kts 296°
2026-04-29 16:26 22.05746 63.97048 36000 ft 506 kts 296°
2026-04-29 16:27 22.08856 63.90192 36000 ft 506 kts 296°
2026-04-29 16:27 22.11947 63.83369 36002 ft 506 kts 296°
2026-04-29 16:28 22.15021 63.76574 36000 ft 506 kts 296°
2026-04-29 16:28 22.18102 63.69754 35996 ft 506 kts 296°
2026-04-29 16:29 22.21187 63.62917 36001 ft 506 kts 296°
2026-04-29 16:29 22.24273 63.56068 35998 ft 506 kts 296°
2026-04-29 16:30 22.27348 63.49233 36000 ft 506 kts 296°
2026-04-29 16:30 22.30423 63.42390 36002 ft 506 kts 296°
2026-04-29 16:31 22.33495 63.35543 36000 ft 506 kts 296°
2026-04-29 16:31 22.36566 63.28691 36001 ft 506 kts 296°
2026-04-29 16:32 22.39619 63.21868 35999 ft 506 kts 296°
2026-04-29 16:32 22.42680 63.15018 36000 ft 506 kts 295°
2026-04-29 16:33 22.47098 63.04634 36000 ft 506 kts 292°
2026-04-29 16:33 22.49756 62.97588 35998 ft 506 kts 292°
2026-04-29 16:34 22.52442 62.90532 36001 ft 506 kts 292°
2026-04-29 16:34 22.55165 62.83501 36002 ft 506 kts 292°
2026-04-29 16:35 22.57883 62.76522 36000 ft 506 kts 292°
2026-04-29 16:35 22.60618 62.69489 36001 ft 506 kts 292°
2026-04-29 16:36 22.63344 62.62465 36001 ft 506 kts 292°
2026-04-29 16:36 22.66070 62.55423 36001 ft 506 kts 292°
2026-04-29 16:37 22.68789 62.48391 35998 ft 506 kts 292°
2026-04-29 16:37 22.71044 62.42549 36001 ft 506 kts 292°
2026-04-29 16:38 22.74219 62.34313 35997 ft 506 kts 292°
2026-04-29 16:38 22.76932 62.27263 36000 ft 506 kts 292°
2026-04-29 16:39 22.79641 62.20214 36000 ft 506 kts 292°
2026-04-29 16:39 22.82344 62.13170 36002 ft 506 kts 292°
2026-04-29 16:40 22.85049 62.06107 36002 ft 506 kts 292°
2026-04-29 16:40 22.87748 61.99051 35998 ft 506 kts 292°
2026-04-29 16:41 22.90424 61.92044 36000 ft 506 kts 292°
2026-04-29 16:41 22.93099 61.85029 35994 ft 493 kts 292°
2026-04-29 16:42 22.94383 61.81658 35995 ft 476 kts 292°
2026-04-29 16:42 22.95631 61.78380 35993 ft 461 kts 292°
2026-04-29 16:42 22.96833 61.75219 35990 ft 446 kts 292°
2026-04-29 16:42 22.97998 61.72151 35996 ft 432 kts 292°
2026-04-29 16:43 22.99127 61.69178 35992 ft 419 kts 292°
2026-04-29 16:43 23.00226 61.66282 36001 ft 416 kts 292°
2026-04-29 16:43 23.02435 61.60455 36002 ft 417 kts 292°
2026-04-29 16:44 23.04629 61.54661 36000 ft 417 kts 292°
2026-04-29 16:44 23.06850 61.48788 36000 ft 417 kts 292°
2026-04-29 16:45 23.09052 61.42959 36003 ft 417 kts 292°
2026-04-29 16:45 23.11252 61.37126 36002 ft 417 kts 292°
2026-04-29 16:46 23.13437 61.31325 36001 ft 417 kts 292°
2026-04-29 16:46 23.15636 61.25483 36000 ft 417 kts 292°
2026-04-29 16:47 23.17829 61.19645 36001 ft 417 kts 292°
2026-04-29 16:47 23.20022 61.13802 36000 ft 417 kts 292°
2026-04-29 16:48 23.22219 61.07940 36004 ft 424 kts 292°
2026-04-29 16:48 23.24492 61.01866 36006 ft 443 kts 292°
2026-04-29 16:49 23.26859 60.95535 36004 ft 462 kts 292°
2026-04-29 16:49 23.29324 60.88929 36006 ft 480 kts 292°
2026-04-29 16:50 23.31872 60.82095 36001 ft 493 kts 292°
2026-04-29 16:50 23.34448 60.75172 36000 ft 492 kts 292°
2026-04-29 16:51 23.37000 60.68302 35999 ft 492 kts 292°
2026-04-29 16:51 23.39559 60.61398 36000 ft 492 kts 291°
2026-04-29 16:52 23.42091 60.54484 36000 ft 492 kts 291°
2026-04-29 16:52 23.44617 60.47555 36000 ft 492 kts 291°
2026-04-29 16:53 23.47135 60.40649 36002 ft 492 kts 291°
2026-04-29 16:53 23.49670 60.33696 36001 ft 492 kts 291°
2026-04-29 16:54 23.52190 60.26772 35994 ft 492 kts 291°
2026-04-29 16:54 23.54709 60.19841 36001 ft 492 kts 291°
2026-04-29 16:55 23.57206 60.12957 36002 ft 492 kts 291°
2026-04-29 16:55 23.59715 60.06031 36002 ft 492 kts 291°
2026-04-29 16:56 23.62227 59.99086 35998 ft 492 kts 291°
2026-04-29 16:56 23.64733 59.92144 36001 ft 492 kts 291°
2026-04-29 16:57 23.67234 59.85206 36000 ft 492 kts 291°
2026-04-29 16:57 23.69737 59.78251 35997 ft 492 kts 291°
2026-04-29 16:58 23.72235 59.71300 35999 ft 492 kts 291°
2026-04-29 16:58 23.74707 59.64407 36002 ft 492 kts 291°
2026-04-29 16:59 23.77200 59.57448 36002 ft 492 kts 291°
2026-04-29 16:59 23.79687 59.50492 35996 ft 492 kts 291°
2026-04-29 17:00 23.82171 59.43532 35999 ft 492 kts 291°
2026-04-29 17:00 23.84656 59.36560 36002 ft 492 kts 291°
2026-04-29 17:01 23.87137 59.29586 35999 ft 492 kts 291°
2026-04-29 17:01 23.89593 59.22673 36002 ft 492 kts 291°
2026-04-29 17:02 23.92064 59.15706 35998 ft 492 kts 291°
2026-04-29 17:02 23.94484 59.08718 36000 ft 492 kts 289°
2026-04-29 17:03 23.96717 59.01648 36002 ft 492 kts 289°
2026-04-29 17:03 23.98934 58.94566 36001 ft 492 kts 289°
2026-04-29 17:04 24.01177 58.87503 36000 ft 492 kts 289°
2026-04-29 17:04 24.03439 58.80423 36001 ft 492 kts 289°
2026-04-29 17:05 24.05674 58.73425 36000 ft 492 kts 289°
2026-04-29 17:05 24.07929 58.66347 36001 ft 492 kts 289°
2026-04-29 17:06 24.10174 58.59283 36000 ft 492 kts 289°
2026-04-29 17:06 24.12045 58.53404 36000 ft 492 kts 289°
2026-04-29 17:07 24.14285 58.46329 36002 ft 492 kts 289°
2026-04-29 17:07 24.16518 58.39254 36003 ft 492 kts 289°
2026-04-29 17:08 24.18753 58.32169 36000 ft 492 kts 289°
2026-04-29 17:08 24.20981 58.25097 36001 ft 492 kts 289°
2026-04-29 17:09 24.23214 58.17997 36000 ft 492 kts 289°
2026-04-29 17:09 24.25441 58.10904 36001 ft 492 kts 289°
2026-04-29 17:10 24.27663 58.03813 36000 ft 492 kts 289°
2026-04-29 17:10 24.29877 57.96731 36003 ft 492 kts 289°
2026-04-29 17:11 24.32077 57.89686 36002 ft 492 kts 289°
2026-04-29 17:11 24.34289 57.82587 36000 ft 492 kts 289°
2026-04-29 17:12 24.36498 57.75487 36001 ft 492 kts 289°
2026-04-29 17:12 24.38332 57.69579 35999 ft 492 kts 289°
2026-04-29 17:13 24.40905 57.61276 35998 ft 492 kts 289°
2026-04-29 17:13 24.43105 57.54165 36002 ft 492 kts 289°
2026-04-29 17:14 24.45303 57.47061 36000 ft 492 kts 289°
2026-04-29 17:14 24.47481 57.39993 36002 ft 492 kts 288°
2026-04-29 17:15 24.49669 57.32869 36002 ft 492 kts 288°
2026-04-29 17:15 24.51853 57.25753 36002 ft 492 kts 288°
2026-04-29 17:16 24.54037 57.18625 35999 ft 492 kts 288°
2026-04-29 17:16 24.56216 57.11500 35999 ft 492 kts 288°
2026-04-29 17:17 24.58392 57.04374 36002 ft 492 kts 288°
2026-04-29 17:17 24.60551 56.97290 36001 ft 492 kts 288°
2026-04-29 17:18 24.62715 56.90173 35999 ft 492 kts 288°
2026-04-29 17:18 24.65193 56.83182 36013 ft 492 kts 300°
2026-04-29 17:19 24.68621 56.76672 36002 ft 492 kts 301°
2026-04-29 17:19 24.72202 56.70271 36002 ft 492 kts 301°
2026-04-29 17:20 24.75781 56.63867 35998 ft 484 kts 301°
2026-04-29 17:20 24.77504 56.60757 35993 ft 468 kts 301°
2026-04-29 17:20 24.79169 56.57737 35885 ft 456 kts 301°
2026-04-29 17:21 24.80774 56.54818 35650 ft 447 kts 301°
2026-04-29 17:21 24.82367 56.51919 35393 ft 439 kts 301°
2026-04-29 17:21 24.83930 56.49068 35149 ft 431 kts 301°
2026-04-29 17:21 24.85464 56.46271 34911 ft 423 kts 301°
2026-04-29 17:22 24.86965 56.43517 34680 ft 415 kts 300°
2026-04-29 17:22 24.88068 56.40619 34325 ft 409 kts 284°
2026-04-29 17:22 24.88391 56.37548 33879 ft 406 kts 271°
2026-04-29 17:22 24.88372 56.34423 33363 ft 406 kts 268°
2026-04-29 17:23 24.88231 56.31309 32844 ft 407 kts 266°
2026-04-29 17:23 24.88074 56.28188 32278 ft 408 kts 270°
2026-04-29 17:23 24.88431 56.25088 31688 ft 409 kts 286°
2026-04-29 17:23 24.89541 56.22211 31121 ft 410 kts 298°
2026-04-29 17:24 24.90889 56.19482 30544 ft 411 kts 299°
2026-04-29 17:24 24.92305 56.16699 29974 ft 412 kts 299°
2026-04-29 17:24 24.93710 56.13952 29533 ft 409 kts 299°
2026-04-29 17:24 24.95085 56.11269 29097 ft 407 kts 299°
2026-04-29 17:25 24.96474 56.08561 28659 ft 404 kts 299°
2026-04-29 17:25 24.98040 56.05996 28190 ft 402 kts 310°
2026-04-29 17:25 24.99875 56.03694 27767 ft 399 kts 312°
2026-04-29 17:25 25.01741 56.01438 27344 ft 396 kts 312°
2026-04-29 17:26 25.03591 55.99194 26921 ft 394 kts 312°
2026-04-29 17:26 25.05425 55.96960 26512 ft 391 kts 312°
2026-04-29 17:26 25.07238 55.94751 26108 ft 388 kts 312°
2026-04-29 17:26 25.09041 55.92546 25678 ft 385 kts 311°
2026-04-29 17:27 25.10823 55.90357 25267 ft 382 kts 311°
2026-04-29 17:27 25.12591 55.88185 25033 ft 378 kts 311°
2026-04-29 17:27 25.14352 55.86021 24994 ft 379 kts 311°
2026-04-29 17:27 25.16022 55.83783 24832 ft 376 kts 304°
2026-04-29 17:28 25.17428 55.81354 24371 ft 374 kts 301°
2026-04-29 17:28 25.18775 55.78898 23909 ft 373 kts 301°
2026-04-29 17:28 25.20126 55.76447 23480 ft 371 kts 301°
2026-04-29 17:28 25.21447 55.74061 23059 ft 368 kts 301°
2026-04-29 17:29 25.22780 55.71659 22631 ft 366 kts 301°
2026-04-29 17:29 25.24116 55.69267 22189 ft 364 kts 301°
2026-04-29 17:29 25.25436 55.66893 21772 ft 361 kts 301°
2026-04-29 17:29 25.26304 55.65330 21483 ft 359 kts 301°
2026-04-29 17:30 25.28051 55.62194 20765 ft 360 kts 301°
2026-04-29 17:30 25.29038 55.59660 20147 ft 362 kts 281°
2026-04-29 17:30 25.29064 55.56886 19660 ft 360 kts 258°
2026-04-29 17:30 25.28107 55.54356 19175 ft 358 kts 235°
2026-04-29 17:31 25.26337 55.52469 18682 ft 356 kts 212°
2026-04-29 17:31 25.24059 55.51525 18223 ft 354 kts 188°
2026-04-29 17:31 25.21622 55.51665 17743 ft 353 kts 165°
2026-04-29 17:31 25.19452 55.52880 17268 ft 351 kts 140°
2026-04-29 17:32 25.17968 55.54950 16993 ft 343 kts 115°
2026-04-29 17:32 25.17429 55.57463 16753 ft 334 kts 90°
2026-04-29 17:32 25.17919 55.59915 16449 ft 327 kts 63°
2026-04-29 17:32 25.19321 55.61839 16071 ft 322 kts 37°
2026-04-29 17:33 25.21246 55.63059 15703 ft 318 kts 24°
2026-04-29 17:33 25.23328 55.63852 15294 ft 316 kts 11°
2026-04-29 17:33 25.25515 55.63904 14859 ft 313 kts 348°
2026-04-29 17:33 25.27468 55.62919 14457 ft 310 kts 320°
2026-04-29 17:34 25.28750 55.61050 14034 ft 307 kts 291°
2026-04-29 17:34 25.29054 55.58776 13614 ft 305 kts 263°
2026-04-29 17:34 25.28317 55.56610 13190 ft 304 kts 234°
2026-04-29 17:34 25.26720 55.55130 12754 ft 302 kts 205°
2026-04-29 17:35 25.23313 55.55103 12044 ft 301 kts 155°
2026-04-29 17:35 25.21370 55.57192 11487 ft 299 kts 115°
2026-04-29 17:35 25.20663 55.59342 11066 ft 297 kts 110°
2026-04-29 17:36 25.19672 55.61335 10639 ft 295 kts 122°
2026-04-29 17:36 25.18603 55.63263 10267 ft 293 kts 121°
2026-04-29 17:36 25.17540 55.65185 9864 ft 292 kts 122°
2026-04-29 17:36 25.16483 55.67087 9465 ft 290 kts 122°
2026-04-29 17:37 25.15429 55.68989 9063 ft 289 kts 121°
2026-04-29 17:37 25.14382 55.70869 8661 ft 287 kts 122°
2026-04-29 17:37 25.13335 55.72742 8301 ft 285 kts 122°
2026-04-29 17:37 25.12304 55.74589 8189 ft 283 kts 121°
2026-04-29 17:38 25.11273 55.76447 8158 ft 283 kts 122°
2026-04-29 17:38 25.10254 55.78265 7993 ft 273 kts 122°
2026-04-29 17:38 25.09270 55.80017 7815 ft 264 kts 122°
2026-04-29 17:38 25.08325 55.81714 7654 ft 255 kts 122°
2026-04-29 17:39 25.07329 55.83288 7471 ft 247 kts 132°
2026-04-29 17:39 25.05981 55.84393 7280 ft 235 kts 157°
2026-04-29 17:39 25.04474 55.84750 7208 ft 221 kts 180°
2026-04-29 17:39 25.02998 55.84497 6881 ft 211 kts 200°
2026-04-29 17:40 25.01779 55.83702 6581 ft 199 kts 222°
2026-04-29 17:40 25.00995 55.82498 6212 ft 193 kts 248°
2026-04-29 17:40 25.00786 55.81060 5947 ft 190 kts 274°
2026-04-29 17:40 25.01148 55.79685 5670 ft 185 kts 297°
2026-04-29 17:41 25.01802 55.78476 5291 ft 183 kts 303°
2026-04-29 17:41 25.02541 55.77331 4848 ft 183 kts 313°
2026-04-29 17:41 25.03288 55.76228 4438 ft 182 kts 298°
2026-04-29 17:41 25.03918 55.75008 4219 ft 180 kts 300°
2026-04-29 17:42 25.04560 55.73820 4189 ft 181 kts 301°
2026-04-29 17:42 25.05210 55.72635 4189 ft 181 kts 301°
2026-04-29 17:42 25.05865 55.71453 4314 ft 180 kts 301°
2026-04-29 17:42 25.06523 55.70274 4608 ft 181 kts 301°
2026-04-29 17:43 25.07193 55.69090 4945 ft 182 kts 302°
2026-04-29 17:43 25.07859 55.67910 5226 ft 179 kts 301°
2026-04-29 17:43 25.08497 55.66763 4956 ft 174 kts 301°
2026-04-29 17:43 25.09105 55.65670 4892 ft 166 kts 301°
2026-04-29 17:44 25.09720 55.64561 5043 ft 175 kts 301°
2026-04-29 17:44 25.10370 55.63386 5095 ft 182 kts 301°
2026-04-29 17:44 25.11030 55.62193 5094 ft 182 kts 301°
2026-04-29 17:44 25.11691 55.60999 5093 ft 182 kts 301°
2026-04-29 17:45 25.12350 55.59807 5092 ft 182 kts 301°
2026-04-29 17:45 25.13011 55.58611 4993 ft 178 kts 301°
2026-04-29 17:45 25.13635 55.57485 4769 ft 168 kts 301°
2026-04-29 17:45 25.14244 55.56386 4715 ft 175 kts 301°
2026-04-29 17:46 25.14876 55.55245 4383 ft 175 kts 301°
2026-04-29 17:46 25.15514 55.54093 3948 ft 177 kts 301°
2026-04-29 17:46 25.16156 55.52933 3524 ft 178 kts 301°
2026-04-29 17:46 25.16797 55.51776 3239 ft 174 kts 301°
2026-04-29 17:47 25.17429 55.50636 3192 ft 175 kts 301°
2026-04-29 17:47 25.18068 55.49481 3191 ft 176 kts 301°
2026-04-29 17:47 25.18704 55.48316 3122 ft 178 kts 300°
2026-04-29 17:47 25.19190 55.47386 2947 ft 177 kts 299°
2026-04-29 17:48 25.19305 55.47159 2915 ft 177 kts 299°
2026-04-29 17:48 25.19912 55.45940 2323 ft 187 kts 298°
2026-04-29 17:48 25.20568 55.44693 1711 ft 187 kts 301°
2026-04-29 17:49 25.21241 55.43491 1264 ft 176 kts 302°
2026-04-29 17:49 25.21887 55.42453 1026 ft 155 kts 304°
2026-04-29 17:49 25.22477 55.41491 786 ft 149 kts 304°
2026-04-29 17:49 25.23040 55.40526 571 ft 150 kts 302°
2026-04-29 17:50 25.23584 55.39537 281 ft 152 kts 298°
2026-04-29 17:50 25.24133 55.38546 58 ft 147 kts 303°
2026-04-29 17:50 25.24284 55.38293 55 ft 138 kts 303°
2026-04-29 17:51 25.24619 55.37693 67 ft 146 kts 298°
2026-04-29 17:51 25.25228 55.36773 262 ft 155 kts 317°
2026-04-29 17:51 25.26061 55.35966 1304 ft 164 kts 320°
2026-04-29 17:52 25.27011 55.35129 2409 ft 185 kts 321°
2026-04-29 17:52 25.27686 55.34479 3118 ft 205 kts 317°
2026-04-29 17:52 25.28565 55.32270 3809 ft 279 kts 272°
2026-04-29 17:52 25.28204 55.30158 4041 ft 331 kts 247°
2026-04-29 17:53 25.26917 55.27857 4066 ft 383 kts 235°
2026-04-29 17:53 25.25654 55.25280 3822 ft 368 kts 252°
2026-04-29 17:53 25.25368 55.22624 3565 ft 346 kts 275°
2026-04-29 17:53 25.26085 55.20076 3272 ft 354 kts 299°
2026-04-29 17:54 25.27689 55.17984 2682 ft 357 kts 317°
2026-04-29 17:54 25.27803 55.17872 2493 ft 0 kts 315°